This demonstration page uses our WeatherBlox Daily Observations layout. Learn more.

41.55636, -103.73856

Hourly Observations for January 31, 2019

Temp ( °F °C ) Dew Point ( °F °C ) Humidity (%) Winds ( mph kmh ) Pressure ( in mb ) Visibility ( mi km ) Precip ( " mm )
12:58 am 00:58 Cloudy 32 0.1 10 -12.5 39 39 WNW 12 19 29.95 1014 10 16.0934 N/A
1:58 am 01:58 Mostly Cloudy 34 1.3 9 -13 34 34 W 18 30 29.93 1014 10 16.0934 N/A
2:58 am 02:58 Mostly Cloudy 33 0.6 10 -12.4 37 37 WNW 10 17 29.9 1013 10 16.0934 N/A
3:58 am 03:58 Mostly Cloudy 31 -0.5 14 -10 49 49 W 7 11 29.9 1012 10 16.0934 N/A
4:58 am 04:58 Cloudy 31 -0.6 15 -9.5 51 51 Calm 29.89 1012 10 16.0934 N/A
5:58 am 05:58 Mostly Cloudy 32 -0.1 12 -10.9 44 44 W 9 15 29.87 1012 10 16.0934 N/A
6:58 am 06:58 Mostly Cloudy 32 0 10 -12 40 40 WNW 13 20 29.86 1011 10 16.0934 N/A
7:58 am 07:58 Mostly Cloudy 32 0.2 10 -12.1 39 39 W 17 28 29.87 1012 10 16.0934 N/A
8:58 am 08:58 Clear 31 -0.7 11 -11.9 43 43 W 15 24 29.88 1012 10 16.0934 N/A
9:58 am 09:58 Clear 29 -1.6 10 -12.1 45 45 W 17 28 29.91 1013 10 16.0934 N/A
10:58 am 10:58 Clear 27 -2.8 11 -11.5 52 52 W 12 19 29.92 1013 10 16.0934 N/A
11:58 am 11:58 Clear 29 -1.4 10 -12.2 44 44 W 17 28 29.93 1014 10 16.0934 N/A
12:58 pm 12:58 Clear 30 -1.3 9 -12.7 42 42 W 20 31 29.94 1014 10 16.0934 N/A
1:58 pm 13:58 Mostly Clear 27 -3 11 -11.8 51 51 W 16 26 29.98 1015 10 16.0934 N/A
2:58 pm 14:58 Sunny 29 -1.4 11 -11.8 45 45 W 18 30 29.97 1015 10 16.0934 N/A
3:58 pm 15:58 Sunny 33 0.5 13 -10.7 43 43 W 14 22 29.98 1015 10 16.0934 N/A
4:58 pm 16:58 Sunny 37 2.8 12 -11.1 36 36 NW 16 26 29.99 1016 10 16.0934 N/A
5:58 pm 17:58 Sunny 42 5.3 13 -10.7 31 31 WNW 26 43 29.97 1015 10 16.0934 N/A
6:58 pm 18:58 Sunny 44 6.4 14 -10.2 30 30 NW 23 37 29.96 1014 10 16.0934 N/A
7:58 pm 19:58 Sunny 45 7.1 15 -9.7 29 29 NW 23 37 29.93 1014 10 16.0934 N/A
8:58 pm 20:58 Sunny 45 7.4 16 -8.7 31 31 NW 22 35 29.95 1014 10 16.0934 N/A
9:58 pm 21:58 Sunny 46 7.5 17 -8.6 31 31 NW 25 41 29.95 1014 10 16.0934 N/A
10:58 pm 22:58 Sunny 43 6.2 18 -7.7 37 37 NNW 12 19 29.97 1015 10 16.0934 N/A
11:58 pm 23:58 Sunny 39 4.1 20 -6.4 47 47 WNW 16 26 30 1016 10 16.0934 N/A

Powered by AerisWeather